Tracking 28790 objects as of 19-Apr-2024
HD Live streaming from Space Station
objects crossing your sky now

DELTA 1 DEB

Track DELTA 1 DEB now!
10-day predictions


NORAD ID: 10761
Int'l Code: 1976-077BJ
Perigee: 531.5 km
Apogee: 1,949.6 km
Inclination: 101.5 °
Period: 110.1 minutes
Semi major axis: 7611 km
RCS: 0.0748 m2 (small)
Launch date: July 29, 1976
Source: United States (US)
Launch site: AIR FORCE WESTERN TEST RANGE (AFWTR)

Note: This is SATELLITE DEBRIS
Your satellite tracking list
Your tracking list is empty




NASA's NSSDC Master Catalog

Two Line Element Set (TLE):
1 10761U 76077BJ  24109.69792980  .00192445  00000-0  59930-1 0  9990
2 10761 101.4673 185.7919 0931518  89.6118 281.1526 13.07351930116868
Source of the keplerian elements: AFSPC